Regional Weather Roundup
Issued by NWS Sioux Falls, SD

Home | Current Version | Previous Version | Text Only | Print | Product List | Glossary On
Versions: 1 2 3 4 5 6 7 8 9 10 11 12 13 14 15 16 17 18 19 20 21 22 23 24 25 26 27 28 29 30 31 32 33 34 35 36 37 38 39 40 41 42 43 44 45 46 47 48 49 50
000
ASUS43 KFSD 250110
RWRFSD

WEATHER ROUNDUP FOR SE SOUTH DAKOTA/SW MINNESOTA/NW IOWA
NATIONAL WEATHER SERVICE SIOUX FALLS SD
800 PM CDT THU JUL 24 2014

NOTE: "FAIR" INDICATES FEW OR NO CLOUDS BELOW 12,000 FEET WITH NO
SIGNIFICANT WEATHER AND OR OBSTRUCTIONS TO VISIBILITY.


SDZ038>040-050-052>070-250200-
SOUTHEAST SOUTH DAKOTA

CITY           SKY/WX    TMP DP  RH WIND       PRES   REMARKS
CHAMBERLAIN    SUNNY     84  69  61 SE18G30   29.69F
HURON          SUNNY     74  62  66 SE16G32   29.75S
MADISON        FAIR      68  64  88 S14G21    29.85F
MITCHELL       CLEAR     77  64  64 SE28G39   29.77F
SIOUX FALLS    PTCLDY    71  62  73 S16       29.86F
WINNER         FAIR      92  70  48 S20G29    29.69R HX  97
YANKTON        CLEAR     75  64  69 SE20G26   29.83F
$$

MNZ071-072-080-081-089-090-097-098-250200-
SOUTHWEST MINNESOTA

CITY           SKY/WX    TMP DP  RH WIND       PRES   REMARKS
FAIRMONT       PTCLDY    66  57  72 S10       29.92S
JACKSON        PTCLDY    66  54  63 S10G16    29.90F
LUVERNE        PTCLDY    68  61  77 S7        29.89F
MARSHALL       CLOUDY    68  57  68 S13       29.87S
MONTEVIDEO     CLOUDY    70  61  73 SW9       29.87S
PIPESTONE      CLEAR     66  59  77 S15G21    29.88F
REDWOOD FALLS  CLOUDY    70  60  70 S15G24    29.88S
TRACY          MOCLDY    67  58  72 S9        29.88S
WINDOM         PTCLDY    66  57  72 S9G16     29.90S
WORTHINGTON    PTCLDY    66  59  77 S12G17    29.89F
$$

IAZ001>003-012>014-020>022-031-032-NEZ013-014-SDZ071-250200-
NORTHWEST IOWA

CITY           SKY/WX    TMP DP  RH WIND       PRES   REMARKS
CHEROKEE       PTCLDY    70  63  77 S17       29.89F
DENISON        PTCLDY    72  63  73 SE16G24   29.93F
ESTHERVILLE    PTCLDY    64  57  78 S14       29.90F
LE MARS        CLEAR     72  63  73 S16G23    29.88F
ORANGE CITY    PTCLDY    72  61  68 S15G21    29.88F
SHELDON        MOCLDY    66  63  88 S12       29.87F
SIOUX CITY     CLEAR     76  63  64 S15G24    29.89F
SPENCER        MOCLDY    68  60  75 S15G21    29.89F
STORM LAKE     MOCLDY    68  63  83 S20G26    29.90F
$$

ABBREVIATIONS USED IN REMARKS
   TC - TEMPERATURE IN CELSIUS
  WCI - WIND CHILL INDEX
   HX - HEAT INDEX
  VSB - VISIBILITY



USA.gov is the U.S. government's official web portal to all federal, state and local government web resources and services.